KC3JUG-3 Weather Reports


Display with metric or nautical units.
time (UTC)temp
F
wind
direction
speed
MPH
gust
MPH
rain 1hr
in
rain 24hr
in
rain mn
in
humidity
%
barometer
mb
20260504100549 50 194 3.0 5.0 0.00 0.00 0.00 50 1015.6
20260504081553 51 236 1.0 5.0 0.00 0.00 0.00 48 1015.8
20260504081047 51 234 2.0 5.0 0.00 0.00 0.00 48 1015.9
20260504080547 51 223 2.0 5.0 0.00 0.00 0.00 48 1015.9
20260504050547 54 238 3.0 8.0 0.00 0.00 0.00 46 1016.0
20260504050117 53 267 3.0 10.0 0.00 0.00 0.00 45 1016.0
20260504045547 54 251 3.0 10.0 0.00 0.00 0.00 45 1016.0
20260504045047 54 245 4.0 10.0 0.00 0.00 0.00 45 1016.1
20260504044545 53 238 3.0 8.0 0.00 0.00 0.00 45 1016.0
20260504044048 53 251 4.0 8.0 0.00 0.00 0.00 46 1016.0
20260504043548 53 232 3.0 8.0 0.00 0.00 0.00 46 1015.9
20260504043047 53 244 3.0 8.0 0.00 0.00 0.00 46 1015.9
20260504042547 53 250 3.0 8.0 0.00 0.00 0.00 46 1015.8
20260504042047 53 249 3.0 8.0 0.00 0.00 0.00 46 1015.8
20260504041548 53 250 3.0 8.0 0.00 0.00 0.00 46 1015.8
20260504041047 53 242 3.0 7.0 0.00 0.00 0.00 46 1015.7
20260504040547 53 243 3.0 8.0 0.00 0.00 0.00 46 1015.7
20260504035547 53 244 2.0 8.0 0.00 0.00 0.00 47 1015.7
20260504035050 53 256 3.0 9.0 0.00 0.00 0.00 47 1015.7
20260504034552 53 253 3.0 9.0 0.00 0.00 0.00 46 1015.7
20260504034047 53 252 3.0 9.0 0.00 0.00 0.00 46 1015.7
20260504033548 53 234 2.0 7.0 0.00 0.00 0.00 46 1015.7
20260504033057 53 255 2.0 6.0 0.00 0.00 0.00 46 1015.6
20260504032548 53 253 2.0 6.0 0.00 0.00 0.00 47 1015.6
20260504032048 53 252 2.0 8.0 0.00 0.00 0.00 46 1015.6
20260504031619 53 254 3.0 8.0 0.00 0.00 0.00 46 1015.6
20260504031046 53 255 2.0 6.0 0.00 0.00 0.00 46 1015.6
20260504030547 53 239 2.0 5.0 0.00 0.00 0.00 47 1015.4
20260504030053 53 248 2.0 7.0 0.00 0.00 0.00 47 1015.5
20260504025547 53 258 2.0 7.0 0.00 0.00 0.00 46 1015.4
20260504025049 53 262 3.0 7.0 0.00 0.00 0.00 46 1015.4
20260504024553 53 246 2.0 5.0 0.00 0.00 0.00 47 1015.4
20260504024048 53 240 2.0 7.0 0.00 0.00 0.00 47 1015.4
20260504023546 53 250 2.0 7.0 0.00 0.00 0.00 46 1015.5
20260504023049 53 250 2.0 8.0 0.00 0.00 0.00 46 1015.6
20260504022547 53 250 2.0 8.0 0.00 0.00 0.00 46 1015.6
20260504022047 53 251 2.0 8.0 0.00 0.00 0.00 47 1015.7
20260504021602 53 249 2.0 8.0 0.00 0.00 0.00 47 1015.5
20260504021047 53 265 2.0 8.0 0.00 0.00 0.00 48 1015.4
20260504020547 52 248 3.0 8.0 0.00 0.00 0.00 48 1015.6
20260504020052 52 250 2.0 5.0 0.00 0.00 0.00 49 1015.6
20260504015547 51 258 2.0 5.0 0.00 0.00 0.00 51 1015.6
20260504015047 50 252 1.0 4.0 0.00 0.00 0.00 53 1015.5
20260504014553 50 270 0.0 3.0 0.00 0.00 0.00 55 1015.5
20260504014046 50 0 0.0 2.0 0.00 0.00 0.00 55 1015.4
20260504013546 51 0 0.0 3.0 0.00 0.00 0.00 55 1015.3
20260504013051 51 0 0.0 4.0 0.00 0.00 0.00 53 1015.2
20260504012549 51 254 2.0 4.0 0.00 0.00 0.00 50 1015.3
20260504012048 51 248 2.0 4.0 0.00 0.00 0.00 52 1015.3
20260504011553 50 246 1.0 4.0 0.00 0.00 0.00 54 1015.2
20260504011048 50 0 0.0 1.0 0.00 0.00 0.00 55 1015.2
20260504010547 51 0 0.0 3.0 0.00 0.00 0.00 55 1015.2
20260504010057 51 0 0.0 3.0 0.00 0.00 0.00 53 1015.0
20260504005547 51 0 0.0 4.0 0.00 0.00 0.00 54 1015.2
20260504005047 51 0 0.0 4.0 0.00 0.00 0.00 53 1015.1
20260504004555 51 0 1.0 5.0 0.00 0.00 0.00 52 1015.1
20260504004047 51 236 0.0 5.0 0.00 0.00 0.00 52 1015.1
20260504003547 52 236 0.0 5.0 0.00 0.00 0.00 54 1015.0
20260504003047 52 0 0.0 3.0 0.00 0.00 0.00 53 1014.9
20260504002547 53 246 0.0 3.0 0.00 0.00 0.00 52 1014.9
20260504002047 53 246 0.0 3.0 0.00 0.00 0.00 51 1014.8
20260504001608 53 246 1.0 4.0 0.00 0.00 0.00 48 1014.6
20260504001048 54 246 1.0 4.0 0.00 0.00 0.00 48 1014.6
20260504000548 54 246 1.0 4.0 0.00 0.00 0.00 47 1014.5
20260504000058 54 234 1.0 4.0 0.00 0.00 0.00 46 1014.4
20260503235548 55 257 2.0 4.0 0.00 0.00 0.00 45 1014.5
20260503235050 55 258 1.0 3.0 0.00 0.00 0.00 45 1014.3
20260503234547 55 258 1.0 6.0 0.00 0.00 0.00 45 1014.3
20260503234047 55 258 2.0 6.0 0.00 0.00 0.00 45 1014.3
20260503233547 56 256 2.0 6.0 0.00 0.00 0.00 44 1014.2
20260503233050 56 247 2.0 7.0 0.00 0.00 0.00 43 1014.2
20260503232548 56 269 3.0 7.0 0.00 0.00 0.00 42 1014.2
20260503232048 56 274 3.0 7.0 0.00 0.00 0.00 43 1014.3
20260503231558 56 266 3.0 7.0 0.00 0.00 0.00 42 1014.2
20260503231048 56 239 3.0 8.0 0.00 0.00 0.00 42 1014.3
20260503230550 56 268 4.0 8.0 0.00 0.00 0.00 42 1014.3
20260503230059 56 250 4.0 9.0 0.00 0.00 0.00 41 1014.2
20260503225546 56 259 4.0 11.0 0.00 0.00 0.00 41 1014.2
20260503225052 57 258 5.0 11.0 0.00 0.00 0.00 41 1014.0
20260503224556 57 265 4.0 9.0 0.00 0.00 0.00 40 1014.0
20260503224048 57 0 5.0 9.0 0.00 0.00 0.00 40 1014.1
20260503223546 57 266 4.0 8.0 0.00 0.00 0.00 40 1014.0
20260503223051 57 266 3.0 8.0 0.00 0.00 0.00 41 1014.0
20260503222546 57 227 3.0 9.0 0.00 0.00 0.00 41 1014.1
20260503222047 57 277 4.0 9.0 0.00 0.00 0.00 41 1014.1
20260503221558 57 271 5.0 9.0 0.00 0.00 0.00 40 1014.0
20260503221049 57 259 3.0 9.0 0.00 0.00 0.00 41 1014.0
20260503220547 57 265 5.0 10.0 0.00 0.00 0.00 40 1014.0
20260503220052 57 257 3.0 10.0 0.00 0.00 0.00 42 1014.1
20260503215546 57 280 5.0 10.0 0.00 0.00 0.00 40 1014.1
20260503215048 57 234 5.0 9.0 0.00 0.00 0.00 40 1014.0
20260503214556 57 249 5.0 10.0 0.00 0.00 0.00 41 1014.0
20260503214050 57 245 3.0 10.0 0.00 0.00 0.00 40 1014.1
20260503213547 57 265 5.0 10.0 0.00 0.00 0.00 39 1014.1
20260503213123 57 238 5.0 10.0 0.00 0.00 0.00 41 1014.1
20260503212547 57 272 4.0 10.0 0.00 0.00 0.00 40 1014.1
20260503212050 57 236 4.0 10.0 0.00 0.00 0.00 41 1014.0
20260503211614 57 250 5.0 10.0 0.00 0.00 0.00 40 1014.0
20260503211049 57 257 5.0 10.0 0.00 0.00 0.00 41 1014.0
20260503210547 56 240 5.0 9.0 0.00 0.00 0.00 42 1014.0
20260503210047 57 259 4.0 9.0 0.00 0.00 0.00 39 1014.0
20260503205547 57 270 4.0 7.0 0.00 0.00 0.00 40 1014.0
20260503205047 57 235 3.0 10.0 0.00 0.00 0.00 41 1014.0
20260503204602 57 271 5.0 10.0 0.00 0.00 0.00 42 1014.1
20260503204046 57 269 5.0 8.0 0.00 0.00 0.00 40 1014.1
20260503203546 56 257 3.0 8.0 0.00 0.00 0.00 41 1014.1
20260503203054 56 276 4.0 8.0 0.00 0.00 0.00 41 1014.2
20260503202547 56 269 4.0 11.0 0.00 0.00 0.00 41 1014.2
20260503202051 57 254 3.0 11.0 0.00 0.00 0.00 41 1014.3
20260503201549 56 264 5.0 9.0 0.00 0.00 0.00 40 1014.1
20260503201046 55 234 2.0 6.0 0.00 0.00 0.00 43 1014.2
20260503200546 55 269 1.0 13.0 0.00 0.00 0.00 43 1014.3
20260503200052 55 257 5.0 13.0 0.00 0.00 0.00 43 1014.4
20260503195548 56 275 4.0 12.0 0.00 0.00 0.00 40 1014.4
20260503195046 56 267 6.0 12.0 0.00 0.00 0.00 39 1014.5
20260503194553 56 282 5.0 10.0 0.00 0.00 0.00 42 1014.5
20260503194047 56 254 2.0 10.0 0.00 0.00 0.00 43 1014.6
20260503193547 56 268 4.0 10.0 0.00 0.00 0.00 42 1014.6
20260503193046 56 264 6.0 10.0 0.00 0.00 0.00 42 1014.6
20260503192546 55 252 5.0 10.0 0.00 0.00 0.00 42 1014.6
20260503192047 55 267 5.0 9.0 0.00 0.00 0.00 42 1014.8
20260503191602 54 264 2.0 8.0 0.00 0.00 0.00 44 1014.7
20260503191047 55 251 2.0 7.0 0.00 0.00 0.00 42 1014.9
20260503190547 55 125 2.0 12.0 0.00 0.00 0.00 44 1014.9
20260503190046 55 270 7.0 12.0 0.00 0.00 0.00 43 1014.9
20260503185547 55 271 6.0 11.0 0.00 0.00 0.00 44 1014.8
20260503185047 54 265 5.0 10.0 0.00 0.00 0.00 46 1014.9
20260503184607 54 257 4.0 10.0 0.00 0.00 0.00 44 1015.1
20260503184047 54 263 6.0 13.0 0.00 0.00 0.00 45 1015.1
20260503183547 54 269 3.0 13.0 0.00 0.00 0.00 44 1015.1
20260503183052 54 292 3.0 13.0 0.00 0.00 0.00 43 1015.3
20260503182547 54 261 6.0 10.0 0.00 0.00 0.00 41 1015.4
20260503182047 55 247 5.0 10.0 0.00 0.00 0.00 43 1015.2
20260503181554 54 272 4.0 9.0 0.00 0.00 0.00 45 1015.3
20260503181047 54 254 3.0 9.0 0.00 0.00 0.00 43 1015.3
20260503180546 54 294 5.0 10.0 0.00 0.00 0.00 43 1015.4
20260503180053 54 314 4.0 10.0 0.00 0.00 0.00 48 1015.4
20260503175547 54 283 5.0 10.0 0.00 0.00 0.00 47 1015.5
20260503175047 54 190 3.0 9.0 0.00 0.00 0.00 45 1015.4
20260503174610 54 275 3.0 9.0 0.00 0.00 0.00 46 1015.4
20260503174051 53 262 5.0 10.0 0.00 0.00 0.00 44 1015.4
20260503173547 53 269 6.0 10.0 0.00 0.00 0.00 45 1015.4
20260503173105 52 286 3.0 10.0 0.00 0.00 0.00 46 1015.4
20260503172546 52 330 5.0 10.0 0.00 0.00 0.00 46 1015.5
20260503172047 52 261 3.0 10.0 0.00 0.00 0.00 45 1015.6
20260503171549 52 233 5.0 11.0 0.00 0.00 0.00 45 1015.4
20260503171047 52 277 5.0 17.0 0.00 0.00 0.00 45 1015.5
20260503170547 51 272 6.0 17.0 0.00 0.00 0.00 44 1015.6
20260503150546 46 296 3.0 8.0 0.00 0.00 0.00 54 1016.1
20260503131046 43 266 5.0 9.0 0.00 0.00 0.00 64 1016.1
20260503130545 43 269 3.0 9.0 0.00 0.00 0.00 64 1016.0
20260503110547 41 242 1.0 3.0 0.00 0.00 0.00 72 1015.4